Theta_e
309 307 307 307 308 306 305 304 303 302 302 302 302 302 301 302 300 298 302 305 307 306 301 303 303 304 305 306 306 306 308 308 305 305 305 307 307 308 308 308 308 308 307 307 306
304 304 305 304 304 304 302 301 302 301 300 300 301 301 301 301 303 299 301 305 305 301 302 303 305 305 306 306 306 307 307 305 304 305 307 307 307 308 307 307 307 304 304 304 305
302 300 300 301 300 301 301 300 301 301 300 300 301 301 301 301 303 299 300 303 302 300 302 304 304 306 306 305 305 305 306 304 305 306 306 307 308 306 307 305 302 303 303 304 307
299 299 299 299 299 299 299 299 300 300 299 298 300 301 297 300 302 297 299 299 300 301 303 304 304 306 306 305 305 306 305 304 305 305 306 309 307 305 306 302 301 302 301 305 309
298 299 298 297 297 299 299 299 299 300 299 298 298 300 299 301 299 296 298 297 299 302 302 304 304 304 305 305 305 306 305 305 305 306 308 307 305 304 302 300 300 300 300 302 303
298 298 297 297 297 299 299 299 299 298 298 298 298 299 300 300 296 297 297 298 299 302 303 303 304 303 304 304 305 304 305 305 305 305 308 308 307 303 301 299 300 300 299 299 300
298 297 297 296 296 298 298 298 299 298 298 298 298 299 300 298 296 297 298 298 299 301 303 302 303 303 303 304 304 304 305 306 306 306 308 306 309 303 300 299 300 299 299 298 298
298 297 297 296 296 298 298 298 298 298 298 298 298 300 300 296 297 297 298 301 300 300 301 300 302 302 303 304 305 305 306 307 306 306 306 306 306 303 300 299 299 298 297 297 296
298 297 297 296 296 298 299 298 297 298 298 297 300 300 299 296 297 297 297 299 301 302 302 301 302 302 303 305 307 307 306 306 307 305 305 305 305 304 300 299 298 297 297 296 295
298 298 297 296 297 298 299 296 297 297 297 297 297 300 298 297 296 297 297 297 301 302 303 303 303 303 303 304 307 304 305 306 307 306 305 306 305 302 300 299 298 297 297 296 294
298 298 296 296 298 297 299 300 300 301 298 299 298 298 297 296 295 297 296 298 301 302 302 302 303 302 301 301 302 304 305 307 306 305 306 308 307 302 300 298 299 297 297 295 293
298 297 296 296 298 298 299 301 301 301 299 296 296 296 295 295 298 297 297 300 302 302 302 303 301 300 301 301 302 305 306 306 306 305 306 308 307 306 300 299 298 297 296 295 293
298 297 296 296 297 298 301 301 298 298 302 297 296 296 295 296 296 296 296 298 299 301 301 299 299 300 301 302 301 304 305 303 303 305 307 307 309 304 301 298 298 297 295 294 293
298 296 296 297 298 297 301 299 299 301 315 300 297 296 295 295 297 295 295 297 298 299 300 299 299 300 301 300 300 305 301 302 304 309 313 307 312 305 300 299 297 296 295 294 293
298 296 295 296 297 298 297 300 299 303 326 298 297 295 295 296 295 296 296 298 298 297 300 298 297 299 300 299 300 301 301 303 306 310 311 308 311 305 299 298 297 295 294 293 292
297 296 295 296 298 298 298 298 301 323 323 298 297 296 296 296 296 297 297 296 296 297 298 297 297 299 298 299 299 300 305 305 307 309 317 307 307 306 300 297 295 294 293 292 292
296 295 295 295 297 298 298 301 315 314 299 298 297 296 296 295 296 296 297 298 300 308 303 299 297 299 298 299 300 300 306 315 316 314 313 307 308 304 299 296 295 294 292 292 291
295 298 300 300 299 299 299 310 319 309 300 295 296 296 297 294 294 296 298 300 297 298 302 301 300 297 297 297 296 300 302 306 310 310 308 306 308 306 298 295 295 294 292 291 291
297 300 301 299 300 299 306 315 319 302 296 296 295 297 297 295 296 297 297 298 296 296 303 302 298 296 297 297 296 299 301 298 301 304 306 306 305 302 298 295 294 293 291 290 290
298 301 297 298 299 299 307 317 302 295 295 295 299 297 299 296 298 299 298 295 297 295 295 297 304 295 297 298 298 297 297 303 305 308 308 306 306 303 296 295 293 293 290 290 290
302 305 296 297 299 303 314 307 296 293 294 295 297 297 296 297 297 296 296 294 295 295 295 295 297 301 299 298 297 297 298 298 299 303 306 306 308 297 294 294 293 292 290 290 289
303 308 295 297 304 300 304 298 294 294 293 294 294 295 296 295 296 297 296 296 295 295 297 295 298 301 296 294 294 295 296 296 302 303 302 302 303 296 295 294 293 291 290 289 289
302 298 296 297 309 303 294 295 296 293 294 293 294 294 293 294 298 294 295 294 295 295 296 295 298 303 301 297 295 296 295 295 295 296 302 300 304 297 296 294 293 291 290 289 289
301 303 297 297 296 301 298 298 296 293 293 293 293 293 293 293 292 293 294 293 294 295 295 294 295 297 298 298 295 296 296 294 294 298 298 299 298 296 294 293 292 291 289 289 288
305 305 302 302 301 300 302 299 298 295 293 293 292 293 295 295 294 293 293 292 293 293 292 293 296 294 294 293 293 295 296 295 293 295 295 297 295 295 292 292 292 291 289 288 288
303 302 298 299 300 300 301 298 299 300 294 293 294 293 292 296 297 296 294 294 295 292 290 290 298 292 294 295 295 295 295 295 295 295 294 294 295 292 291 291 292 290 289 288 287
297 297 303 299 300 303 300 301 301 297 292 293 293 292 291 290 291 292 291 292 293 293 291 292 294 294 299 293 289 297 295 295 295 294 293 295 293 291 290 290 291 289 288 287 287
Wind_Speed
10 11 10 10 8 7 4 3 1 2 2 2 3 6 8 3 4 18 14 17 14 14 11 7 8 5 1 3 4 3 4 6 10 12 15 15 18 18 17 16 17 15 22 25 35
10 11 11 11 8 7 4 2 2 2 3 3 4 6 7 1 5 14 19 17 13 11 12 13 10 7 4 3 2 4 4 10 10 10 14 16 13 15 11 18 19 26 28 32 33
10 11 11 11 9 8 4 2 2 3 3 4 5 6 5 1 6 10 22 16 10 9 6 8 6 5 3 2 7 6 5 8 9 11 14 16 9 11 10 15 21 26 28 30 36
10 11 11 11 9 9 6 3 3 3 2 5 5 5 3 2 3 13 20 10 6 6 9 7 11 5 5 6 5 6 4 8 8 10 14 7 8 15 5 19 24 19 23 22 28
10 11 12 11 9 9 8 5 4 5 5 5 6 4 3 2 7 17 16 7 4 5 10 10 13 8 8 8 8 5 9 8 7 10 4 3 10 14 17 21 22 18 21 20 19
9 10 12 11 10 9 10 5 3 4 6 6 5 2 4 2 8 17 12 5 5 5 9 11 8 9 6 7 4 10 11 10 5 12 2 10 5 15 20 23 19 20 19 19 18
9 10 11 12 11 9 11 5 4 5 4 4 4 2 7 5 6 16 9 6 4 5 9 9 9 9 11 7 5 8 10 4 3 13 8 13 3 17 19 23 21 20 17 18 18
9 10 11 12 11 10 10 3 4 5 2 2 2 3 2 1 6 16 11 3 4 3 6 9 6 5 8 11 7 7 3 8 6 10 7 12 11 16 19 24 23 23 20 20 20
10 10 11 11 11 9 5 2 1 1 1 2 4 6 3 2 10 18 12 7 4 1 4 5 3 2 9 14 6 3 12 11 7 5 4 10 8 12 20 23 23 22 20 21 23
9 11 12 11 10 7 1 3 3 2 3 1 2 4 3 4 6 16 8 9 3 3 3 5 6 7 12 10 6 15 17 12 12 7 7 8 6 17 18 20 18 19 19 19 20
9 10 11 11 6 5 2 3 3 3 8 5 5 2 3 7 4 19 14 8 2 2 5 2 10 14 16 10 10 18 14 15 14 4 6 6 8 14 16 18 20 21 18 19 20
9 9 10 9 4 3 1 3 3 3 1 3 3 3 3 5 3 19 16 2 5 6 7 3 11 14 13 7 13 13 12 13 10 2 7 9 8 7 16 17 16 20 21 24 26
8 9 8 6 2 4 6 3 2 5 3 2 3 3 3 6 5 13 12 4 5 6 6 11 9 11 13 8 16 12 9 15 13 17 8 14 3 9 16 18 19 21 21 22 23
6 7 6 2 2 3 3 3 3 5 2 4 2 3 3 2 2 8 9 3 2 5 3 4 10 10 14 12 15 13 17 15 13 9 5 12 4 12 20 21 28 26 24 24 26
5 4 3 2 5 3 2 3 1 2 5 3 3 2 3 2 4 8 10 2 5 5 4 5 13 12 13 12 13 8 24 12 10 7 10 9 5 9 22 27 30 28 25 23 23
6 5 5 3 7 6 5 1 1 2 6 4 2 1 2 5 3 4 7 5 2 3 5 4 3 4 10 16 4 18 14 9 8 4 3 6 4 11 14 21 25 23 24 24 24
8 9 7 7 3 6 4 2 4 3 1 3 1 2 4 4 3 6 4 11 5 3 5 3 3 3 16 13 6 21 15 2 3 2 4 5 5 3 15 18 16 18 22 22 21
17 9 7 9 9 7 4 3 3 1 0 1 1 4 1 2 2 3 1 3 9 4 3 5 1 11 11 10 10 10 8 4 5 6 9 2 5 4 14 18 15 14 17 21 22
17 9 6 6 7 5 2 2 4 1 1 3 2 4 3 3 1 0 5 2 5 5 3 4 2 2 5 5 12 7 6 3 5 5 5 3 3 6 19 21 24 20 20 21 22
19 7 2 5 7 3 3 3 3 1 1 1 3 1 4 3 3 1 1 2 1 4 2 2 2 3 3 3 7 7 6 1 1 6 6 2 1 7 21 22 24 23 21 21 21
14 4 1 6 9 2 2 4 3 2 2 2 1 2 0 3 2 2 2 3 1 1 3 1 2 3 2 7 8 6 4 5 3 3 4 6 3 7 11 14 18 18 18 19 20
7 3 3 10 2 1 3 3 4 3 1 1 1 1 2 3 3 2 2 2 2 2 1 2 2 1 4 2 2 3 5 5 4 4 1 3 3 5 5 12 14 15 16 17 18
4 3 2 1 3 3 2 3 2 5 5 5 3 1 0 3 1 4 4 4 3 1 1 1 1 2 3 2 3 2 3 4 2 4 3 4 3 6 14 16 15 14 16 16 16
4 4 1 1 0 5 6 4 5 1 3 2 4 3 4 2 2 5 5 3 3 1 4 1 1 2 3 3 2 3 3 3 4 4 6 6 13 16 19 18 18 16 15 17 16
1 2 4 5 4 5 3 8 9 7 3 6 3 7 5 4 2 4 5 5 5 2 2 1 2 1 6 4 4 6 7 5 3 7 4 8 10 16 14 14 14 13 15 17 19
5 4 2 2 8 9 7 9 13 5 10 5 4 11 7 3 1 7 7 6 3 4 2 1 1 1 3 1 2 9 10 9 8 11 12 10 13 9 12 13 13 13 14 17 18
4 2 4 6 5 4 6 8 13 11 3 2 8 7 7 5 9 11 6 7 5 6 4 2 1 2 0 2 5 7 7 10 3 7 7 6 5 13 15 15 14 12 13 15 17
Wind_Direction
358 2 3 7 7 13 6 359 15 27 8 356 341 338 344 5 84 28 20 343 334 339 4 358 27 52 85 71 1 309 301 347 348 329 325 335 330 330 328 302 310 332 321 310 308
353 355 356 359 359 0 0 349 336 348 340 328 324 325 330 339 240 22 357 351 349 14 23 19 14 348 64 23 21 342 306 4 337 326 326 325 336 338 334 323 331 317 313 313 305
344 350 352 353 351 353 349 326 318 331 10 8 342 335 345 232 249 12 351 347 357 7 11 1 359 332 33 21 0 5 327 336 318 320 323 310 332 335 302 335 330 320 319 309 295
339 344 349 349 344 350 346 317 298 298 335 7 355 347 3 209 359 351 340 345 8 360 12 1 10 16 359 10 3 298 357 322 308 321 313 353 307 332 287 345 328 333 315 315 341
334 335 342 345 342 345 342 316 293 278 283 318 341 344 294 66 13 337 340 336 326 6 23 4 20 348 12 342 324 268 332 303 306 309 87 283 2 354 359 342 331 344 327 338 347
326 330 337 341 337 333 333 306 321 325 291 307 319 350 259 84 348 345 344 354 0 17 25 18 8 347 302 309 296 331 303 283 288 337 358 290 295 14 351 346 345 337 339 343 353
319 326 332 334 334 322 329 287 271 316 313 323 311 321 57 77 5 359 1 0 4 36 28 12 352 3 333 332 333 298 295 269 310 347 11 320 52 7 353 351 351 347 350 347 347
312 319 326 329 331 325 330 300 262 286 278 337 316 266 48 19 345 8 11 49 51 49 21 7 333 330 360 286 245 292 247 329 16 346 26 326 4 3 -0 0 358 353 353 349 348
308 316 321 328 332 328 331 342 309 150 205 11 288 267 84 336 8 359 360 347 325 343 356 341 315 327 354 339 256 191 331 334 325 69 26 28 347 347 7 6 356 356 351 348 344
303 312 319 325 335 335 295 54 91 78 326 282 271 229 55 7 348 353 343 335 321 263 202 354 14 10 11 9 359 318 319 315 325 333 298 316 347 17 13 3 356 355 350 350 343
303 311 316 322 337 335 179 274 244 167 46 48 29 5 29 343 316 11 348 309 251 83 15 28 17 16 355 349 321 305 298 298 336 32 316 299 302 7 18 3 2 2 357 352 343
303 310 313 325 341 11 121 281 23 2 130 64 79 76 21 343 329 11 358 321 27 46 -0 241 29 357 334 344 335 319 311 335 309 342 300 302 322 22 17 9 14 5 359 353 349
293 301 313 314 304 31 73 58 32 4 254 123 52 33 357 342 37 359 1 345 10 52 26 51 353 333 340 351 351 344 346 327 302 310 290 305 139 6 23 5 12 16 3 359 356
276 293 311 256 143 87 57 70 43 343 285 136 136 58 346 353 46 10 5 337 63 44 4 45 4 346 346 6 354 318 357 318 293 303 335 31 307 40 5 360 8 9 4 357 352
246 269 360 203 123 73 114 94 342 295 307 78 92 356 39 30 337 30 14 344 48 27 288 57 359 349 354 348 329 285 321 301 285 301 304 6 298 17 4 360 359 359 360 356 348
217 231 186 83 77 96 95 118 236 321 252 130 115 80 172 37 47 341 18 52 3 351 29 50 44 335 342 317 352 324 324 266 257 286 238 343 316 41 12 354 348 352 355 356 347
209 207 188 155 111 124 125 292 65 191 32 136 121 116 92 40 45 13 54 43 30 351 30 189 50 41 1 348 7 354 1 303 228 272 337 336 342 37 11 8 359 352 350 353 352
151 161 103 119 137 144 102 73 152 284 58 30 103 117 134 12 58 16 144 71 50 0 27 345 149 15 360 28 323 354 355 10 309 347 329 329 0 44 13 10 2 6 354 353 356
169 145 133 133 150 142 125 114 200 171 90 162 177 220 155 147 226 221 52 55 32 17 36 335 120 35 20 7 5 346 26 301 291 224 260 5 98 148 4 1 357 359 357 356 356
147 129 106 151 146 105 80 187 134 70 131 75 238 276 202 144 190 136 82 84 113 32 69 75 282 38 348 251 53 41 347 285 233 330 318 10 175 339 347 350 351 351 352 351 353
132 143 128 146 130 49 180 151 126 101 342 221 279 207 65 151 150 120 128 142 177 58 60 111 294 33 240 24 8 7 23 341 272 329 323 317 69 349 347 351 348 347 344 347 349
140 148 158 160 108 3 156 96 33 122 216 219 288 45 193 156 118 131 153 77 123 133 110 77 321 336 57 45 359 14 20 4 318 13 297 278 323 300 329 5 357 348 342 345 344
105 105 111 276 173 177 127 94 172 157 183 183 172 331 304 157 132 136 140 105 134 258 30 74 134 268 179 193 176 333 16 9 274 249 263 319 28 333 359 351 357 349 345 342 344
124 126 122 229 352 145 152 167 162 153 134 125 132 130 155 130 40 153 144 159 138 106 67 165 300 306 340 317 340 285 309 350 321 276 341 286 318 336 342 343 342 350 345 343 344
124 161 171 173 219 163 164 143 158 169 243 189 175 215 166 135 120 173 147 149 189 114 83 40 268 237 288 284 247 269 266 268 238 282 265 346 313 317 336 335 338 342 343 345 347
131 148 55 91 128 132 166 199 177 163 169 205 218 171 165 156 212 183 153 185 176 145 92 52 142 260 269 188 280 278 272 271 251 268 266 276 291 356 335 335 341 345 346 342 347
117 97 110 151 149 150 197 172 187 150 207 13 172 132 158 106 89 92 83 94 114 147 140 192 172 254 224 21 329 263 230 209 212 244 267 263 358 328 327 334 337 340 342 341 339